[[{"header":{"parameterUnit":"m.s-1","parameterCategory":1,"la1":30.2991,"la2":30.254,"lo1":-89.0895,"lo2":-89.0444,"dy":0.0017,"dx":0.0017,"nx":28,"ny":28,"refTime":"2025-06-19T03:00:00:Z","depth":0,"parameterNumber":2,"parameterNumberName":"U-component_of_WINDS"},"data":[0,0,0,0,0,0,0,0,0,0,0,0,0,0,0,0,0,0,0,0,0,0,0,0,0,0,0,0,0,0,0,0,0,0,0,0,0,0,0,0,0,0,0,0,0,0,0,0,0,0,0,0,0,0,0,0,0,0,-0.2064,-0.2063,0,-0.1985,-0.1984,-0.1983,-0.1972,-0.1973,-0.1974,-0.1974,-0.189,-0.1888,-0.1885,0,0,0,0,0,0,0,0,0,0,0,0,0,-0.2204,-0.2202,-0.2064,-0.2063,-0.2062,-0.1985,-0.1984,-0.1983,-0.1972,-0.1973,-0.1974,-0.1975,-0.1891,-0.1888,-0.1884,0,0,0,0,0,0,0,0,0,0,0,0,0,-0.2136,-0.2201,-0.2064,-0.2047,-0.2045,-0.1985,-0.1984,-0.1983,-0.1972,-0.1973,-0.1974,-0.1975,-0.1893,-0.1888,-0.1884,-0.1834,0,0,-0.187,-0.1869,0,0,0,0,0,0,0,0,-0.214,-0.2131,-0.2051,-0.2048,-0.2046,-0.199,-0.2003,-0.1933,-0.1972,-0.2,-0.1974,-0.1976,-0.1922,-0.1916,-0.1898,-0.183,-0.1827,-0.187,-0.1867,-0.1866,-0.1864,0,0,0,0,0,0,0,-0.2145,-0.2134,-0.2033,-0.205,-0.2047,-0.2043,-0.2035,-0.1989,-0.1955,-0.1997,-0.1996,-0.1987,-0.1921,-0.1902,-0.1896,-0.1825,-0.187,-0.1866,-0.1864,-0.1862,-0.1714,-0.1713,0,0,0,0,0,0,-0.2153,-0.2138,-0.2035,-0.203,-0.2097,-0.204,-0.2031,-0.2006,-0.1956,-0.1949,-0.1986,-0.1987,-0.1909,-0.1901,-0.1893,-0.1832,-0.1866,-0.1861,-0.1859,-0.1715,-0.1714,-0.1713,0,0,0,0,0,0,-0.2156,-0.2144,-0.2038,-0.2084,-0.207,-0.2036,-0.2009,-0.2004,-0.1986,-0.1948,-0.1942,-0.1973,-0.191,-0.1899,-0.1849,-0.1829,-0.1859,-0.1855,-0.1717,-0.1715,-0.1713,-0.1709,0,0,0,0,0,0,-0.216,-0.2145,-0.2126,-0.2084,-0.2068,-0.1996,-0.2008,-0.2002,-0.1978,-0.1978,-0.1934,-0.1928,-0.191,-0.1856,-0.1845,-0.1823,-0.1852,-0.1719,-0.1716,-0.1714,-0.1711,-0.1707,-0.1704,0,0,0,0,0,-0.2165,-0.2127,-0.2125,-0.2112,-0.2044,-0.1995,-0.1986,-0.1967,-0.1977,-0.1957,-0.1933,-0.1929,-0.1833,-0.1851,-0.1839,-0.1815,-0.172,-0.1717,-0.1714,-0.1713,-0.1708,-0.1704,0,0,0,0,0,0,-0.2166,-0.2121,-0.2118,-0.2065,-0.2034,-0.1993,-0.1968,-0.1963,-0.1928,-0.1929,-0.1907,-0.1897,-0.1848,-0.1827,-0.1847,-0.1765,-0.1777,-0.1772,-0.1781,-0.1776,-0.1773,-0.1778,-0.1848,0,0,0,0,0,-0.216,-0.2125,-0.2088,-0.2045,-0.203,-0.2002,-0.198,-0.1968,-0.1935,-0.1921,-0.1893,-0.186,-0.1823,-0.1799,-0.1762,-0.1709,-0.1699,-0.1687,-0.1683,-0.1681,-0.1676,-0.1647,-0.1641,-0.1703,-0.1703,-0.1703,0,0,-0.2147,-0.2119,-0.2098,-0.2045,-0.2019,-0.1983,-0.1991,-0.1952,-0.1925,-0.1915,-0.1866,-0.1845,-0.1807,-0.1756,-0.1731,-0.1736,-0.1657,-0.1677,-0.1675,-0.1672,-0.1643,-0.1637,-0.1632,-0.1701,-0.1701,-0.1702,0,0,-0.2106,-0.2081,-0.2043,-0.2018,-0.198,-0.1962,-0.1953,-0.1913,-0.1899,-0.185,-0.1843,-0.181,-0.1746,-0.1719,-0.1697,-0.1648,-0.1643,-0.1637,-0.1619,-0.1591,-0.1586,-0.1582,-0.1564,-0.1558,-0.1633,-0.1633,-0.1633,0,-0.2094,-0.2041,-0.2024,-0.1986,-0.1962,-0.1954,-0.1915,-0.1891,-0.1843,-0.1827,-0.1834,-0.1754,-0.1728,-0.167,-0.1659,-0.1641,-0.163,-0.1641,-0.1588,-0.1584,-0.1579,-0.1562,-0.1556,-0.1632,-0.1632,-0.1632,-0.1632,0,-0.2029,-0.1992,-0.1965,-0.192,-0.1894,-0.1856,-0.1833,-0.1809,-0.1801,-0.1782,-0.1733,-0.1702,-0.1659,-0.1645,-0.1635,-0.1586,-0.159,-0.1593,-0.1605,-0.1573,-0.1557,-0.155,-0.1631,-0.1632,-0.1632,-0.1632,0,0,-0.1983,-0.1931,-0.1922,-0.1902,-0.186,-0.1831,-0.1793,-0.1752,-0.1732,-0.17,-0.1667,-0.1614,-0.1617,-0.1592,-0.158,-0.1556,-0.1519,-0.1561,-0.156,-0.1554,-0.1463,-0.1461,-0.1453,-0.1516,-0.1515,-0.1514,-0.1466,0,-0.1936,-0.1869,-0.1853,-0.1795,-0.176,-0.1753,-0.172,-0.1691,-0.1673,-0.1641,-0.1621,-0.1584,-0.1591,-0.1576,-0.1552,-0.1529,-0.15,-0.1532,-0.1485,-0.1483,-0.1494,-0.1445,-0.1441,-0.1398,-0.146,-0.1459,-0.1458,0,-0.1872,-0.184,-0.1778,-0.1743,-0.1728,-0.1698,-0.1661,-0.163,-0.1598,-0.1587,-0.156,-0.1551,-0.1511,-0.1526,-0.1471,-0.1493,-0.1473,-0.1459,-0.1457,-0.1451,-0.1468,-0.1436,-0.1383,-0.1376,-0.1448,-0.1448,-0.1449,0,-0.1844,-0.1786,-0.1741,-0.1725,-0.1682,-0.1662,-0.1643,-0.1612,-0.1589,-0.1556,-0.1541,-0.1504,-0.1483,-0.1454,-0.1436,-0.1448,-0.1382,-0.1395,-0.1371,-0.1371,-0.1355,-0.1356,-0.1298,-0.1345,-0.1345,-0.1345,-0.1345,0,-0.1793,-0.1755,-0.1729,-0.1701,-0.166,-0.1643,-0.1602,-0.1583,-0.1555,-0.1524,-0.1516,-0.1487,-0.1464,-0.1432,-0.1417,-0.1373,-0.1364,-0.1354,-0.135,-0.1354,-0.1355,-0.1339,-0.1341,-0.1343,-0.1344,-0.1344,-0.1344,0,-0.1754,-0.1735,-0.1686,-0.1651,-0.1641,-0.1612,-0.1582,-0.1555,-0.1538,-0.1499,-0.1489,-0.1462,-0.1423,-0.1403,-0.1354,-0.1344,-0.1296,-0.1294,-0.1307,-0.1305,-0.1282,-0.1284,-0.121,-0.1199,-0.1254,-0.1254,-0.1253,0,-0.1722,-0.1693,-0.1656,-0.1635,-0.1616,-0.1582,-0.156,-0.1542,-0.1519,-0.1481,-0.1459,-0.1421,-0.1389,-0.1328,-0.1304,-0.1267,-0.1264,-0.1241,-0.1258,-0.1264,-0.1263,-0.1265,-0.1262,-0.1237,-0.1237,-0.1236,-0.1236,0,-0.1667,-0.1659,-0.1627,-0.1592,-0.1566,-0.1537,-0.1509,-0.1492,-0.147,-0.1444,-0.1406,-0.1382,-0.1334,-0.1296,-0.1258,-0.1238,-0.1233,-0.1231,-0.1223,-0.1226,-0.1235,-0.1229,-0.1297,-0.1232,-0.1233,-0.1233,-0.1233,-0.1233,-0.1629,-0.1604,-0.1574,-0.1539,-0.1516,-0.1491,-0.1464,-0.1445,-0.1413,-0.1373,-0.1365,-0.1325,-0.1294,-0.1243,-0.1222,-0.119,-0.1195,-0.1183,-0.118,-0.1178,-0.1177,-0.1241,-0.1183,-0.1183,-0.1183,-0.1183,-0.1184,0,-0.1573,-0.1554,-0.1523,-0.1484,-0.1457,-0.1457,-0.1426,-0.1403,-0.1367,-0.134,-0.131,-0.1266,-0.123,-0.1204,-0.1167,-0.1146,-0.1143,-0.1137,-0.1138,-0.1133,-0.1175,-0.1185,-0.114,-0.114,-0.114,-0.114,-0.114,-0.114,-0.1541,-0.1498,-0.1487,-0.1433,-0.1414,-0.1375,-0.1358,-0.1334,-0.1312,-0.1264,-0.1235,-0.1219,-0.1192,-0.1153,-0.112,-0.1114,-0.11,-0.1094,-0.1087,-0.1126,-0.113,-0.1135,-0.1144,-0.1091,-0.1091,-0.1048,-0.1047,-0.1047]},{"header":{"parameterUnit":"m.s-1","parameterCategory":1,"la1":30.2991,"la2":30.254,"lo1":-89.0895,"lo2":-89.0444,"dy":0.0017,"dx":0.0017,"nx":28,"ny":28,"refTime":"2025-06-19T03:00:00:Z","depth":0,"parameterNumber":3,"parameterNumberName":"V-component_of_WINDS"},"data":[0,0,0,0,0,0,0,0,0,0,0,0,0,0,0,0,0,0,0,0,0,0,0,0,0,0,0,0,0,0,0,0,0,0,0,0,0,0,0,0,0,0,0,0,0,0,0,0,0,0,0,0,0,0,0,0,0,0,3.4939,3.4939,0,3.4927,3.4927,3.4927,3.4887,3.4886,3.4885,3.4884,3.4872,3.4873,3.4873,0,0,0,0,0,0,0,0,0,0,0,0,0,3.493,3.493,3.4939,3.4939,3.4939,3.4927,3.4927,3.4927,3.4887,3.4886,3.4885,3.4884,3.4872,3.4873,3.4873,0,0,0,0,0,0,0,0,0,0,0,0,0,3.4927,3.493,3.4939,3.4918,3.4916,3.4927,3.4927,3.4927,3.4887,3.4886,3.4884,3.4883,3.4872,3.4873,3.4873,3.4905,0,0,3.4876,3.4876,0,0,0,0,0,0,0,0,3.4928,3.4928,3.4921,3.4919,3.4917,3.4907,3.4919,3.4919,3.4887,3.4898,3.4884,3.4882,3.4885,3.4885,3.4885,3.4905,3.4904,3.4876,3.4876,3.4877,3.4877,0,0,0,0,0,0,0,3.4928,3.4928,3.4934,3.4921,3.4918,3.4909,3.4907,3.4919,3.4899,3.4897,3.4894,3.4893,3.4884,3.4885,3.4885,3.4904,3.4876,3.4877,3.4877,3.4877,3.4949,3.4951,0,0,0,0,0,0,3.4931,3.4928,3.4935,3.4934,3.4919,3.491,3.4908,3.4912,3.4899,3.4896,3.4894,3.4891,3.4884,3.4884,3.4884,3.492,3.4877,3.4877,3.4878,3.4948,3.495,3.4951,0,0,0,0,0,0,3.4931,3.4932,3.4935,3.493,3.493,3.4912,3.4916,3.4912,3.4913,3.4897,3.4893,3.4899,3.4883,3.4883,3.49,3.492,3.4878,3.4879,3.4946,3.4948,3.495,3.4994,0,0,0,0,0,0,3.4931,3.4932,3.4943,3.4931,3.4931,3.4951,3.4917,3.4913,3.4914,3.491,3.49,3.4897,3.4882,3.4899,3.4901,3.492,3.4879,3.4944,3.4947,3.495,3.499,3.4997,3.5003,0,0,0,0,0,3.493,3.4956,3.4944,3.4945,3.4945,3.4953,3.4952,3.4934,3.4916,3.4928,3.4917,3.4898,3.4917,3.4901,3.4903,3.4922,3.4943,3.4946,3.495,3.4988,3.4996,3.5003,0,0,0,0,0,0,3.4971,3.4954,3.4941,3.4963,3.496,3.4946,3.496,3.4943,3.4945,3.4941,3.4918,3.4916,3.4937,3.4931,3.4914,3.4953,3.4927,3.4931,3.4955,3.4963,3.4969,3.497,3.488,0,0,0,0,0,3.4983,3.4991,3.4975,3.4997,3.4996,3.4978,3.4981,3.4967,3.4963,3.4961,3.4952,3.4949,3.4954,3.4958,3.4963,3.499,3.4987,3.5004,3.501,3.5015,3.5019,3.5033,3.504,3.4962,3.4962,3.4962,0,0,3.5007,3.4999,3.5005,3.5005,3.5,3.5009,3.4977,3.4988,3.4994,3.4963,3.4978,3.4972,3.4967,3.4989,3.4999,3.4985,3.504,3.5019,3.5024,3.5024,3.5037,3.5044,3.5051,3.4964,3.4964,3.4963,0,0,3.5055,3.505,3.5067,3.5063,3.5057,3.5046,3.505,3.5039,3.5033,3.5049,3.5026,3.5033,3.5043,3.504,3.5041,3.5089,3.5071,3.5091,3.5123,3.5137,3.5143,3.5149,3.5166,3.5172,3.5095,3.5095,3.5095,0,3.5086,3.5098,3.5078,3.509,3.5091,3.5063,3.5081,3.5078,3.5074,3.5076,3.5061,3.5073,3.5068,3.5089,3.5101,3.5102,3.5106,3.5092,3.5144,3.5149,3.5154,3.517,3.5177,3.5097,3.5097,3.5097,3.5097,0,3.5136,3.5145,3.516,3.5156,3.5159,3.5174,3.5156,3.5162,3.5148,3.5138,3.5155,3.5147,3.515,3.5154,3.5141,3.5174,3.5166,3.5148,3.5121,3.5164,3.5179,3.5185,3.5101,3.51,3.5099,3.5099,0,0,3.5209,3.5195,3.52,3.5199,3.519,3.5197,3.5211,3.5213,3.5218,3.5217,3.5228,3.5237,3.5221,3.5221,3.5208,3.522,3.5259,3.5201,3.52,3.5212,3.5295,3.5309,3.5316,3.5247,3.5249,3.5249,3.5296,0,3.5254,3.5277,3.526,3.5286,3.5294,3.5268,3.528,3.5277,3.5268,3.5274,3.5265,3.5272,3.525,3.525,3.5261,3.5252,3.5276,3.5249,3.5258,3.5258,3.5259,3.5324,3.5337,3.5382,3.5301,3.5302,3.5303,0,3.531,3.5311,3.5338,3.5328,3.5331,3.5342,3.5343,3.5349,3.5345,3.5338,3.5339,3.5322,3.5336,3.5311,3.5329,3.5311,3.5314,3.531,3.5311,3.5311,3.5283,3.5325,3.5395,3.5402,3.5312,3.5311,3.5311,0,3.5361,3.5369,3.5385,3.5385,3.5374,3.5383,3.5379,3.5373,3.5376,3.5377,3.5379,3.5382,3.5383,3.5386,3.5371,3.5354,3.5391,3.5365,3.5386,3.5387,3.5395,3.5394,3.5466,3.5398,3.5397,3.5397,3.5397,0,3.5413,3.543,3.5408,3.5418,3.5437,3.5418,3.5437,3.543,3.5426,3.5435,3.5413,3.5422,3.5402,3.5409,3.5397,3.5415,3.5416,3.541,3.5407,3.5412,3.5413,3.5413,3.541,3.5399,3.5399,3.5398,3.5398,0,3.5472,3.5457,3.5474,3.5463,3.5461,3.5475,3.5466,3.5475,3.5466,3.5477,3.5479,3.5464,3.5471,3.5457,3.5462,3.5454,3.5479,3.5471,3.548,3.5477,3.5499,3.5497,3.5573,3.5582,3.5509,3.551,3.551,0,3.5506,3.5518,3.5509,3.5513,3.551,3.5518,3.552,3.5502,3.5506,3.5503,3.5513,3.5518,3.5522,3.5535,3.5525,3.5529,3.552,3.5547,3.5521,3.5526,3.552,3.552,3.5521,3.5552,3.5553,3.5554,3.5554,0,3.5568,3.556,3.5565,3.5567,3.5571,3.5572,3.5571,3.5576,3.5557,3.5563,3.557,3.5572,3.5578,3.5584,3.5586,3.5582,3.5565,3.5563,3.5568,3.5573,3.5577,3.5575,3.5494,3.5561,3.556,3.556,3.5559,3.5559,3.5615,3.5625,3.562,3.5626,3.5624,3.5624,3.5632,3.5624,3.563,3.5632,3.5622,3.5631,3.5628,3.5628,3.5627,3.5634,3.5622,3.563,3.5632,3.5634,3.5637,3.5577,3.5635,3.5634,3.5634,3.5634,3.5634,0,3.5676,3.5671,3.5677,3.5677,3.5682,3.5666,3.5664,3.567,3.5678,3.5676,3.568,3.5689,3.5694,3.5685,3.5689,3.5697,3.569,3.5699,3.5698,3.5697,3.5648,3.5643,3.5705,3.5705,3.5705,3.5705,3.5705,3.5705,3.5708,3.5724,3.5716,3.5732,3.5727,3.5736,3.5737,3.5737,3.5735,3.5746,3.575,3.5744,3.5739,3.5743,3.5748,3.5745,3.5748,3.576,3.5754,3.5708,3.5701,3.5694,3.5689,3.576,3.5761,3.5803,3.5803,3.5804]}]]